Back to catalog

STARLINK-1156

AliveCommunicationsVLEO
NORAD 45054·PAYLOAD·🇺🇸 United States

Launched Jan 29, 2020 from Cape Canaveral Space Force Station

Loading…

Next Passes (next 24 hours)

TLE

FreshSource: CelesTrak SupGP

Epoch: Sep 14, 2026, 21:04 UTC

1 45054C 20006L   26257.87826389  .00023458  00000+0  51922-3 0  2579
2 45054  53.1516 114.9074 0001342 130.5574 152.9974 15.43203168    13

Track STARLINK-1156 in real time with AllMySat

Download on the App Store